OV2-1

operational
NORAD ID: 1641 Int'l Des: 1965-082 Owner: AFSSD Country: US
LEOCIRCULAR

Über OV2-1

Beschreibung wird geladen...

Live-Position

3D-Globus wird geladen...

Nächste Überflüge

Höhenverlauf

Altitude vs Time

uPlot chart will show altitude changes over time

Zweizeiliger Elementsatz

1 01641U 65082C 26073.27827770 .00000350 00000-0 73018-4 0 9992
2 01641 32.2969 56.4725 0018319 82.3403 277.9323 14.54772031203468
Epoch: 14. März 2026 • Age: 7 hours

Aktueller Status

Höhe 700.2 km
Geschwindigkeit 7.51 km/s
Subsatellitenpunkt 16.71°N, 69.63°E
Typ other

Große Konstellationen

Loading constellations...